ProjectID,Date,Electric Generation,Electric Utility Import,Facility Electric Load
,YYYY-MM-DD,kW,kW,kW
75,2011-12-12,0.4583333333333333,,0.4583333333333333
75,2011-12-13,0.3333333333333333,,0.3333333333333333
75,2011-12-14,0.3333333333333333,,0.3333333333333333
75,2011-12-15,0.25,,0.25
75,2011-12-16,0.25,,0.25
75,2011-12-17,0.25,,0.25
75,2011-12-18,0.4583333333333333,,0.4583333333333333
75,2011-12-19,0.3333333333333333,,0.3333333333333333
75,2011-12-20,0.3333333333333333,,0.3333333333333333
75,2011-12-21,0.20833333333333334,,0.20833333333333334
75,2011-12-22,0.20833333333333334,,0.20833333333333334
75,2011-12-23,0.25,,0.25
75,2011-12-24,0.375,,0.375
75,2011-12-25,0.20833333333333334,,0.20833333333333334
75,2011-12-26,0.25,,0.25
75,2011-12-27,0.20833333333333334,,0.20833333333333334
75,2011-12-28,0.3333333333333333,,0.3333333333333333
75,2011-12-29,0.3333333333333333,,0.3333333333333333
75,2011-12-30,0.25,,0.25
75,2011-12-31,0.125,,0.125
75,2012-01-01,0.08333333333333333,,0.08333333333333333
75,2012-01-02,0.20833333333333334,,0.20833333333333334
75,2012-01-03,0.3333333333333333,,0.3333333333333333
75,2012-01-04,0.375,,0.375
75,2012-01-05,0.25,,0.25
75,2012-01-06,0.2916666666666667,,0.2916666666666667
75,2012-01-07,0.20833333333333334,,0.20833333333333334
75,2012-01-08,0.2916666666666667,,0.2916666666666667
75,2012-01-09,0.3333333333333333,,0.3333333333333333
75,2012-01-10,0.2916666666666667,,0.2916666666666667
75,2012-01-11,0.375,,0.375
75,2012-01-12,0.2916666666666667,,0.2916666666666667
75,2012-01-13,0.4166666666666667,,0.4166666666666667
75,2012-01-14,0.4166666666666667,,0.4166666666666667
75,2012-01-15,0.4166666666666667,,0.4166666666666667
75,2012-01-16,0.4583333333333333,,0.4583333333333333
75,2012-01-17,0.375,,0.375
75,2012-01-18,0.4166666666666667,,0.4166666666666667
75,2012-01-19,0.4166666666666667,,0.4166666666666667
75,2012-01-20,0.2916666666666667,,0.2916666666666667
75,2012-01-21,0.4166666666666667,,0.4166666666666667
75,2012-01-22,0.3333333333333333,,0.3333333333333333
75,2012-01-23,0.25,,0.25
75,2012-01-24,0.16666666666666666,,0.16666666666666666
75,2012-01-25,0.3333333333333333,,0.3333333333333333
75,2012-01-26,0.375,,0.375
75,2012-01-27,0.125,,0.125
75,2012-01-28,0.16666666666666666,,0.16666666666666666
75,2012-01-29,0.2916666666666667,,0.2916666666666667
75,2012-01-30,0.3333333333333333,,0.3333333333333333
75,2012-01-31,0.16666666666666666,,0.16666666666666666
75,2012-02-01,0.125,,0.125
75,2012-02-02,0.2916666666666667,,0.2916666666666667
75,2012-02-03,0.2916666666666667,,0.2916666666666667
75,2012-02-04,0.25,,0.25
75,2012-02-05,0.2916666666666667,,0.2916666666666667
75,2012-02-06,0.25,,0.25
75,2012-02-07,0.20833333333333334,,0.20833333333333334
75,2012-02-08,0.3333333333333333,,0.3333333333333333
75,2012-02-09,0.3333333333333333,,0.3333333333333333
75,2012-02-10,0.20833333333333334,,0.20833333333333334
75,2012-02-11,0.25,,0.25
75,2012-02-12,0.2916666666666667,,0.2916666666666667
75,2012-02-13,104.66666666666667,,104.66666666666667
75,2012-02-14,198.45833333333334,,198.45833333333334
75,2012-02-15,199.08333333333334,,199.08333333333334
75,2012-02-16,199.0,,199.0
75,2012-02-17,198.95833333333334,,198.95833333333334
75,2012-02-18,199.04166666666666,,199.04166666666666
75,2012-02-19,199.125,,199.125
75,2012-02-20,198.83333333333334,,198.83333333333334
75,2012-02-21,198.91666666666666,,198.91666666666666
75,2012-02-22,199.0,,199.0
75,2012-02-23,199.20833333333334,,199.20833333333334
75,2012-02-24,199.0,,199.0
75,2012-02-25,199.0,,199.0
75,2012-02-26,199.0,,199.0
75,2012-02-27,198.54166666666666,,198.54166666666666
75,2012-02-28,198.875,,198.875
75,2012-02-29,198.95833333333334,,198.95833333333334
75,2012-03-01,199.0,,199.0
75,2012-03-02,198.79166666666666,,198.79166666666666
75,2012-03-03,198.04166666666666,,198.04166666666666
75,2012-03-04,198.79166666666666,,198.79166666666666
75,2012-03-05,198.79166666666666,,198.79166666666666
75,2012-03-06,198.625,,198.625
75,2012-03-07,198.79166666666666,,198.79166666666666
75,2012-03-08,198.875,,198.875
75,2012-03-09,198.91666666666666,,198.91666666666666
75,2012-03-10,198.91666666666666,,198.91666666666666
75,2012-03-11,198.875,,198.875
75,2012-03-12,44.875,,44.875
75,2012-03-13,0.0,,0.0
75,2012-03-14,171.20833333333334,,171.20833333333334
75,2012-03-15,198.375,,198.375
75,2012-03-16,198.5,,198.5
75,2012-03-17,198.58333333333334,,198.58333333333334
75,2012-03-18,198.66666666666666,,198.66666666666666
75,2012-03-19,198.95833333333334,,198.95833333333334
75,2012-03-20,199.25,,199.25
75,2012-03-21,199.08333333333334,,199.08333333333334
75,2012-03-22,199.04166666666666,,199.04166666666666
75,2012-03-23,198.79166666666666,,198.79166666666666
75,2012-03-24,199.04166666666666,,199.04166666666666
75,2012-03-25,199.0,,199.0
75,2012-03-26,198.95833333333334,,198.95833333333334
75,2012-03-27,198.95833333333334,,198.95833333333334
75,2012-03-28,199.16666666666666,,199.16666666666666
75,2012-03-29,199.25,,199.25
75,2012-03-30,199.125,,199.125
75,2012-03-31,199.125,,199.125
75,2012-04-01,199.08333333333334,,199.08333333333334
75,2012-04-02,199.08333333333334,,199.08333333333334
75,2012-04-03,199.25,,199.25
75,2012-04-04,199.125,,199.125
75,2012-04-05,199.125,,199.125
75,2012-04-06,199.20833333333334,,199.20833333333334
75,2012-04-07,199.20833333333334,,199.20833333333334
75,2012-04-08,199.16666666666666,,199.16666666666666
75,2012-04-09,199.33333333333334,,199.33333333333334
75,2012-04-10,199.25,,199.25
75,2012-04-11,199.20833333333334,,199.20833333333334
75,2012-04-12,199.25,,199.25
75,2012-04-13,199.125,,199.125
75,2012-04-14,199.25,,199.25
75,2012-04-15,199.20833333333334,,199.20833333333334
75,2012-04-16,198.54166666666666,,198.54166666666666
75,2012-04-17,198.0,,198.0
75,2012-04-18,197.875,,197.875
75,2012-04-19,198.0,,198.0
75,2012-04-20,198.16666666666666,,198.16666666666666
75,2012-04-21,197.95833333333334,,197.95833333333334
75,2012-04-22,197.95833333333334,,197.95833333333334
75,2012-04-23,198.04166666666666,,198.04166666666666
75,2012-04-24,198.0,,198.0
75,2012-04-25,198.04166666666666,,198.04166666666666
75,2012-04-26,198.04166666666666,,198.04166666666666
75,2012-04-27,198.0,,198.0
75,2012-04-28,198.08333333333334,,198.08333333333334
75,2012-04-29,197.95833333333334,,197.95833333333334
75,2012-04-30,198.0,,198.0
75,2012-05-01,198.125,,198.125
75,2012-05-02,198.08333333333334,,198.08333333333334
75,2012-05-03,198.25,,198.25
75,2012-05-04,198.08333333333334,,198.08333333333334
75,2012-05-05,198.04166666666666,,198.04166666666666
75,2012-05-06,198.0,,198.0
75,2012-05-07,198.125,,198.125
75,2012-05-08,198.04166666666666,,198.04166666666666
75,2012-05-09,198.0,,198.0
75,2012-05-10,198.04166666666666,,198.04166666666666
75,2012-05-11,198.08333333333334,,198.08333333333334
75,2012-05-12,198.41666666666666,,198.41666666666666
75,2012-05-13,198.375,,198.375
75,2012-05-14,197.91666666666666,,197.91666666666666
75,2012-05-15,197.875,,197.875
75,2012-05-16,197.95833333333334,,197.95833333333334
75,2012-05-17,197.875,,197.875
75,2012-05-18,198.08333333333334,,198.08333333333334
75,2012-05-19,198.25,,198.25
75,2012-05-20,198.29166666666666,,198.29166666666666
75,2012-05-21,198.08333333333334,,198.08333333333334
75,2012-05-22,198.125,,198.125
75,2012-05-23,198.20833333333334,,198.20833333333334
75,2012-05-24,198.25,,198.25
75,2012-05-25,198.375,,198.375
75,2012-05-26,198.5,,198.5
75,2012-05-27,198.41666666666666,,198.41666666666666
75,2012-05-28,198.66666666666666,,198.66666666666666
75,2012-05-29,160.91666666666666,,160.91666666666666
75,2012-05-30,187.70833333333334,,187.70833333333334
75,2012-05-31,190.0,,190.0
75,2012-06-01,190.16666666666666,,190.16666666666666
75,2012-06-02,189.83333333333334,,189.83333333333334
75,2012-06-03,190.16666666666666,,190.16666666666666
75,2012-06-04,189.91666666666666,,189.91666666666666
75,2012-06-05,198.16666666666666,,198.16666666666666
75,2012-06-06,198.54166666666666,,198.54166666666666
75,2012-06-07,198.5,,198.5
75,2012-06-08,198.75,,198.75
75,2012-06-09,198.75,,198.75
75,2012-06-10,198.91666666666666,,198.91666666666666
75,2012-06-11,199.08333333333334,,199.08333333333334
75,2012-06-12,199.04166666666666,,199.04166666666666
75,2012-06-13,199.08333333333334,,199.08333333333334
75,2012-06-14,199.33333333333334,,199.33333333333334
75,2012-06-15,199.25,,199.25
75,2012-06-16,199.45833333333334,,199.45833333333334
75,2012-06-17,199.5,,199.5
75,2012-06-18,198.66666666666666,,198.66666666666666
75,2012-06-19,199.33333333333334,,199.33333333333334
75,2012-06-20,120.875,,120.875
75,2012-06-21,0.0,,0.0
75,2012-06-22,101.375,,101.375
75,2012-06-23,198.54166666666666,,198.54166666666666
75,2012-06-24,200.125,,200.125
75,2012-06-25,176.66666666666666,,176.66666666666666
75,2012-06-26,199.41666666666666,,199.41666666666666
75,2012-06-27,199.75,,199.75
75,2012-06-28,200.125,,200.125
75,2012-06-29,200.04166666666666,,200.04166666666666
75,2012-06-30,199.58333333333334,,199.58333333333334
75,2012-07-01,199.66666666666666,,199.66666666666666
75,2012-07-02,199.41666666666666,,199.41666666666666
75,2012-07-03,199.41666666666666,,199.41666666666666
75,2012-07-04,199.5,,199.5
75,2012-07-05,199.41666666666666,,199.41666666666666
75,2012-07-06,193.875,,193.875
75,2012-07-07,199.58333333333334,,199.58333333333334
75,2012-07-08,199.33333333333334,,199.33333333333334
75,2012-07-09,199.20833333333334,,199.20833333333334
75,2012-07-10,198.91666666666666,,198.91666666666666
75,2012-07-11,199.33333333333334,,199.33333333333334
75,2012-07-12,199.95833333333334,,199.95833333333334
75,2012-07-13,199.91666666666666,,199.91666666666666
75,2012-07-14,198.91666666666666,,198.91666666666666
75,2012-07-15,199.83333333333334,,199.83333333333334
75,2012-07-16,199.79166666666666,,199.79166666666666
75,2012-07-17,141.91666666666666,,141.91666666666666
75,2012-07-18,165.45833333333334,,165.45833333333334
75,2012-07-19,199.70833333333334,,199.70833333333334
75,2012-07-20,199.66666666666666,,199.66666666666666
75,2012-07-21,199.54166666666666,,199.54166666666666
75,2012-07-22,200.08333333333334,,200.08333333333334
75,2012-07-23,200.625,,200.625
75,2012-07-24,200.25,,200.25
75,2012-07-25,200.29166666666666,,200.29166666666666
75,2012-07-26,200.125,,200.125
75,2012-07-27,200.20833333333334,,200.20833333333334
75,2012-07-28,200.125,,200.125
75,2012-07-29,200.16666666666666,,200.16666666666666
75,2012-07-30,200.0,,200.0
75,2012-07-31,200.20833333333334,,200.20833333333334
75,2012-08-01,199.125,,199.125
75,2012-08-02,200.33333333333334,,200.33333333333334
75,2012-08-03,200.66666666666666,,200.66666666666666
75,2012-08-04,200.0,,200.0
75,2012-08-05,200.5,,200.5
75,2012-08-06,200.625,,200.625
75,2012-08-07,200.20833333333334,,200.20833333333334
75,2012-08-08,200.33333333333334,,200.33333333333334
75,2012-08-09,200.79166666666666,,200.79166666666666
75,2012-08-10,200.41666666666666,,200.41666666666666
75,2012-08-11,200.5,,200.5
75,2012-08-12,200.41666666666666,,200.41666666666666
75,2012-08-13,192.91666666666666,,192.91666666666666
75,2012-08-14,200.83333333333334,,200.83333333333334
75,2012-08-15,200.95833333333334,,200.95833333333334
75,2012-08-16,201.08333333333334,,201.08333333333334
75,2012-08-17,200.66666666666666,,200.66666666666666
75,2012-08-18,200.54166666666666,,200.54166666666666
75,2012-08-19,200.75,,200.75
75,2012-08-20,200.875,,200.875
75,2012-08-21,200.875,,200.875
75,2012-08-22,200.83333333333334,,200.83333333333334
75,2012-08-23,200.70833333333334,,200.70833333333334
75,2012-08-24,200.5,,200.5
75,2012-08-25,200.54166666666666,,200.54166666666666
75,2012-08-26,200.58333333333334,,200.58333333333334
75,2012-08-27,200.45833333333334,,200.45833333333334
75,2012-08-28,200.375,,200.375
75,2012-08-29,200.83333333333334,,200.83333333333334
75,2012-08-30,200.70833333333334,,200.70833333333334
75,2012-08-31,201.16666666666666,,201.16666666666666
75,2012-09-01,200.95833333333334,,200.95833333333334
75,2012-09-02,200.58333333333334,,200.58333333333334
75,2012-09-03,200.5,,200.5
75,2012-09-04,200.45833333333334,,200.45833333333334
75,2012-09-05,200.54166666666666,,200.54166666666666
75,2012-09-06,200.70833333333334,,200.70833333333334
75,2012-09-07,200.66666666666666,,200.66666666666666
75,2012-09-08,198.70833333333334,,198.70833333333334
75,2012-09-09,200.91666666666666,,200.91666666666666
75,2012-09-10,200.58333333333334,,200.58333333333334
75,2012-09-11,200.45833333333334,,200.45833333333334
75,2012-09-12,200.66666666666666,,200.66666666666666
75,2012-09-13,200.79166666666666,,200.79166666666666
75,2012-09-14,200.79166666666666,,200.79166666666666
75,2012-09-15,200.79166666666666,,200.79166666666666
75,2012-09-16,200.83333333333334,,200.83333333333334
75,2012-09-17,200.58333333333334,,200.58333333333334
75,2012-09-18,200.33333333333334,,200.33333333333334
75,2012-09-19,200.29166666666666,,200.29166666666666
75,2012-09-20,200.33333333333334,,200.33333333333334
75,2012-09-21,200.5,,200.5
75,2012-09-22,200.41666666666666,,200.41666666666666
75,2012-09-23,200.33333333333334,,200.33333333333334
75,2012-09-24,200.33333333333334,,200.33333333333334
75,2012-09-25,200.29166666666666,,200.29166666666666
75,2012-09-26,200.20833333333334,,200.20833333333334
75,2012-09-27,200.20833333333334,,200.20833333333334
75,2012-09-28,200.33333333333334,,200.33333333333334
75,2012-09-29,200.29166666666666,,200.29166666666666
75,2012-09-30,200.375,,200.375
75,2012-10-01,200.25,,200.25
75,2012-10-02,200.25,,200.25
75,2012-10-03,200.16666666666666,,200.16666666666666
75,2012-10-04,200.25,,200.25
75,2012-10-05,200.29166666666666,,200.29166666666666
75,2012-10-06,200.16666666666666,,200.16666666666666
75,2012-10-07,200.25,,200.25
75,2012-10-08,200.25,,200.25
75,2012-10-09,200.20833333333334,,200.20833333333334
75,2012-10-10,200.33333333333334,,200.33333333333334
75,2012-10-11,200.20833333333334,,200.20833333333334
75,2012-10-12,200.25,,200.25
75,2012-10-13,200.20833333333334,,200.20833333333334
75,2012-10-14,200.20833333333334,,200.20833333333334
75,2012-10-15,200.20833333333334,,200.20833333333334
75,2012-10-16,200.25,,200.25
75,2012-10-17,200.16666666666666,,200.16666666666666
75,2012-10-18,200.04166666666666,,200.04166666666666
75,2012-10-19,200.16666666666666,,200.16666666666666
75,2012-10-20,200.08333333333334,,200.08333333333334
75,2012-10-21,200.08333333333334,,200.08333333333334
75,2012-10-22,200.08333333333334,,200.08333333333334
75,2012-10-23,200.25,,200.25
75,2012-10-24,200.20833333333334,,200.20833333333334
75,2012-10-25,200.20833333333334,,200.20833333333334
75,2012-10-26,200.125,,200.125
75,2012-10-27,200.25,,200.25
75,2012-10-28,200.29166666666666,,200.29166666666666
75,2012-10-29,200.20833333333334,,200.20833333333334
75,2012-10-30,200.20833333333334,,200.20833333333334
75,2012-10-31,200.20833333333334,,200.20833333333334
75,2012-11-01,200.125,,200.125
75,2012-11-02,200.08333333333334,,200.08333333333334
75,2012-11-03,200.04166666666666,,200.04166666666666
75,2012-11-04,199.91666666666666,,199.91666666666666
75,2012-11-05,200.0,,200.0
75,2012-11-06,199.95833333333334,,199.95833333333334
75,2012-11-07,199.95833333333334,,199.95833333333334
75,2012-11-08,199.95833333333334,,199.95833333333334
75,2012-11-09,200.04166666666666,,200.04166666666666
75,2012-11-10,200.125,,200.125
75,2012-11-11,199.79166666666666,,199.79166666666666
75,2012-11-12,200.0,,200.0
75,2012-11-13,199.83333333333334,,199.83333333333334
75,2012-11-14,199.83333333333334,,199.83333333333334
75,2012-11-15,199.83333333333334,,199.83333333333334
75,2012-11-16,199.875,,199.875
75,2012-11-17,200.0,,200.0
75,2012-11-18,200.125,,200.125
75,2012-11-19,200.04166666666666,,200.04166666666666
75,2012-11-20,200.25,,200.25
75,2012-11-21,200.20833333333334,,200.20833333333334
75,2012-11-22,199.95833333333334,,199.95833333333334
75,2012-11-23,200.16666666666666,,200.16666666666666
75,2012-11-24,200.08333333333334,,200.08333333333334
75,2012-11-25,200.16666666666666,,200.16666666666666
75,2012-11-26,200.20833333333334,,200.20833333333334
75,2012-11-27,200.16666666666666,,200.16666666666666
75,2012-11-28,200.20833333333334,,200.20833333333334
75,2012-11-29,200.41666666666666,,200.41666666666666
75,2012-11-30,200.20833333333334,,200.20833333333334
75,2012-12-01,200.20833333333334,,200.20833333333334
75,2012-12-02,200.20833333333334,,200.20833333333334
75,2012-12-03,200.54166666666666,,200.54166666666666
75,2012-12-04,200.70833333333334,,200.70833333333334
75,2012-12-05,200.66666666666666,,200.66666666666666
75,2012-12-06,200.54166666666666,,200.54166666666666
75,2012-12-07,200.33333333333334,,200.33333333333334
75,2012-12-08,200.16666666666666,,200.16666666666666
75,2012-12-09,200.125,,200.125
75,2012-12-10,171.20833333333334,,171.20833333333334
75,2012-12-11,0.0,,0.0
75,2012-12-12,95.29166666666667,,95.29166666666667
75,2012-12-13,198.58333333333334,,198.58333333333334
75,2012-12-14,199.45833333333334,,199.45833333333334
75,2012-12-15,199.33333333333334,,199.33333333333334
75,2012-12-16,199.54166666666666,,199.54166666666666
75,2012-12-17,199.625,,199.625
75,2012-12-18,199.45833333333334,,199.45833333333334
75,2012-12-19,199.45833333333334,,199.45833333333334
75,2012-12-20,199.58333333333334,,199.58333333333334
75,2012-12-21,199.54166666666666,,199.54166666666666
75,2012-12-22,199.70833333333334,,199.70833333333334
75,2012-12-23,199.70833333333334,,199.70833333333334
75,2012-12-24,199.70833333333334,,199.70833333333334
75,2012-12-25,199.58333333333334,,199.58333333333334
75,2012-12-26,199.45833333333334,,199.45833333333334
75,2012-12-27,199.66666666666666,,199.66666666666666
75,2012-12-28,199.58333333333334,,199.58333333333334
75,2012-12-29,199.70833333333334,,199.70833333333334
75,2012-12-30,199.41666666666666,,199.41666666666666
75,2012-12-31,199.5,,199.5
75,2013-01-01,199.08333333333334,,199.08333333333334
75,2013-01-02,195.83333333333334,,195.83333333333334
75,2013-01-03,194.33333333333334,,194.33333333333334
75,2013-01-04,199.375,,199.375
75,2013-01-05,199.54166666666666,,199.54166666666666
75,2013-01-06,199.54166666666666,,199.54166666666666
75,2013-01-07,199.54166666666666,,199.54166666666666
75,2013-01-08,196.5,,196.5
75,2013-01-09,199.375,,199.375
75,2013-01-10,199.45833333333334,,199.45833333333334
75,2013-01-11,199.54166666666666,,199.54166666666666
75,2013-01-12,199.45833333333334,,199.45833333333334
75,2013-01-13,199.5,,199.5
75,2013-01-14,199.58333333333334,,199.58333333333334
75,2013-01-15,199.58333333333334,,199.58333333333334
75,2013-01-16,199.75,,199.75
75,2013-01-17,199.58333333333334,,199.58333333333334
75,2013-01-18,198.5,,198.5
75,2013-01-19,199.375,,199.375
75,2013-01-20,199.45833333333334,,199.45833333333334
75,2013-01-21,123.83333333333333,,123.83333333333333
75,2013-01-22,0.0,,0.0
75,2013-01-23,0.0,,0.0
75,2013-01-24,6.416666666666667,,6.416666666666667
75,2013-01-25,36.125,,36.125
75,2013-01-26,0.0,,0.0
75,2013-01-27,93.5,,93.5
75,2013-01-28,197.91666666666666,,197.91666666666666
75,2013-01-29,199.16666666666666,,199.16666666666666
75,2013-01-30,199.29166666666666,,199.29166666666666
75,2013-01-31,199.125,,199.125
75,2013-02-01,199.0,,199.0
75,2013-02-02,198.625,,198.625
75,2013-02-03,199.04166666666666,,199.04166666666666
75,2013-02-04,198.95833333333334,,198.95833333333334
75,2013-02-05,130.83333333333334,,130.83333333333334
75,2013-02-06,0.0,,0.0
75,2013-02-07,59.25,,59.25
75,2013-02-08,198.125,,198.125
75,2013-02-09,198.125,,198.125
75,2013-02-10,195.79166666666666,,195.79166666666666
75,2013-02-11,198.91666666666666,,198.91666666666666
75,2013-02-12,198.83333333333334,,198.83333333333334
75,2013-02-13,198.875,,198.875
75,2013-02-14,198.75,,198.75
75,2013-02-15,199.04166666666666,,199.04166666666666
75,2013-02-16,198.79166666666666,,198.79166666666666
75,2013-02-17,198.625,,198.625
75,2013-02-18,195.79166666666666,,195.79166666666666
75,2013-02-19,198.58333333333334,,198.58333333333334
75,2013-02-20,198.79166666666666,,198.79166666666666
75,2013-02-21,198.5,,198.5
75,2013-02-22,198.45833333333334,,198.45833333333334
75,2013-02-23,198.58333333333334,,198.58333333333334
75,2013-02-24,198.54166666666666,,198.54166666666666
75,2013-02-25,198.45833333333334,,198.45833333333334
75,2013-02-26,198.41666666666666,,198.41666666666666
75,2013-02-27,198.41666666666666,,198.41666666666666
75,2013-02-28,199.04166666666666,,199.04166666666666
75,2013-03-01,198.875,,198.875
75,2013-03-02,198.95833333333334,,198.95833333333334
75,2013-03-03,198.79166666666666,,198.79166666666666
75,2013-03-04,198.83333333333334,,198.83333333333334
75,2013-03-05,198.70833333333334,,198.70833333333334
75,2013-03-06,198.75,,198.75
75,2013-03-07,198.70833333333334,,198.70833333333334
75,2013-03-08,198.79166666666666,,198.79166666666666
75,2013-03-09,198.75,,198.75
75,2013-03-10,198.75,,198.75
75,2013-03-11,198.70833333333334,,198.70833333333334
75,2013-03-12,198.95833333333334,,198.95833333333334
75,2013-03-13,198.875,,198.875
75,2013-03-14,198.79166666666666,,198.79166666666666
75,2013-03-15,198.75,,198.75
75,2013-03-16,198.75,,198.75
75,2013-03-17,198.625,,198.625
75,2013-03-18,198.58333333333334,,198.58333333333334
75,2013-03-19,198.66666666666666,,198.66666666666666
75,2013-03-20,198.58333333333334,,198.58333333333334
75,2013-03-21,198.33333333333334,,198.33333333333334
75,2013-03-22,198.66666666666666,,198.66666666666666
75,2013-03-23,198.66666666666666,,198.66666666666666
75,2013-03-24,198.66666666666666,,198.66666666666666
75,2013-03-25,198.625,,198.625
75,2013-03-26,198.58333333333334,,198.58333333333334
75,2013-03-27,198.58333333333334,,198.58333333333334
75,2013-03-28,198.83333333333334,,198.83333333333334
75,2013-03-29,198.875,,198.875
75,2013-03-30,199.29166666666666,,199.29166666666666
75,2013-03-31,196.33333333333334,,196.33333333333334
75,2013-04-01,0.0,,0.0
75,2013-04-02,0.0,,0.0
75,2013-04-03,0.0,,0.0
75,2013-04-04,0.0,,0.0
75,2013-04-05,0.0,,0.0
75,2013-04-06,0.0,,0.0
75,2013-04-07,0.0,,0.0
75,2013-04-08,0.0,,0.0
75,2013-04-09,78.125,,78.125
75,2013-04-10,199.08333333333334,,199.08333333333334
75,2013-04-11,199.16666666666666,,199.16666666666666
75,2013-04-12,199.125,,199.125
75,2013-04-13,199.08333333333334,,199.08333333333334
75,2013-04-14,199.20833333333334,,199.20833333333334
75,2013-04-15,199.66666666666666,,199.66666666666666
75,2013-04-16,200.20833333333334,,200.20833333333334
75,2013-04-17,200.20833333333334,,200.20833333333334
75,2013-04-18,200.04166666666666,,200.04166666666666
75,2013-04-19,200.0,,200.0
75,2013-04-20,199.79166666666666,,199.79166666666666
75,2013-04-21,199.58333333333334,,199.58333333333334
75,2013-04-22,199.625,,199.625
75,2013-04-23,199.79166666666666,,199.79166666666666
75,2013-04-24,199.95833333333334,,199.95833333333334
75,2013-04-25,199.04166666666666,,199.04166666666666
75,2013-04-26,199.91666666666666,,199.91666666666666
75,2013-04-27,199.75,,199.75
75,2013-04-28,199.95833333333334,,199.95833333333334
75,2013-04-29,200.0,,200.0
75,2013-04-30,200.20833333333334,,200.20833333333334
75,2013-05-01,200.375,,200.375
75,2013-05-02,200.41666666666666,,200.41666666666666
75,2013-05-03,200.29166666666666,,200.29166666666666
75,2013-05-04,200.29166666666666,,200.29166666666666
75,2013-05-05,200.41666666666666,,200.41666666666666
75,2013-05-06,200.41666666666666,,200.41666666666666
75,2013-05-07,200.5,,200.5
75,2013-05-08,200.20833333333334,,200.20833333333334
75,2013-05-09,200.08333333333334,,200.08333333333334
75,2013-05-10,200.20833333333334,,200.20833333333334
75,2013-05-11,200.0,,200.0
75,2013-05-12,199.875,,199.875
75,2013-05-13,200.04166666666666,,200.04166666666666